Weather WX

World > North America > United States > North Dakota

San Haven, North Dakota Regional Weather

Lat: 48.83N, Lon: 100.04W
Wx Zone: NDZ005
Feedback

San Haven, ND Regional Weather

Expires:201907200800;;338572
ASUS43 KBIS 200710
RWRND 

NORTH DAKOTA REGIONAL WEATHER ROUNDUP
NATIONAL WEATHER SERVICE BISMARCK ND
200 AM CDT SAT JUL 20 2019

NOTE: "FAIR" INDICATES FEW OR NO CLOUDS BELOW 12,000 FEET WITH NO
SIGNIFICANT WEATHER AND/OR OBSTRUCTIONS TO VISIBILITY.



NDZ004>008-012>016-024-026-027-054-200800-
NORTHEAST NORTH DAKOTA
  
CITY           SKY/WX    TMP DP  RH WIND       PRES   REMARKS
GRAND FORKS    MOCLDY    58  54  86 SW6       29.82R                  
GRND FRKS AFB  MOCLDY    60  56  88 SW5       29.82S                  
DEVILS LAKE    CLOUDY    69  54  58 SW6       29.84S                  
$$
 

SKY/WX - Weather  TMP - Temperature  DP - Dew Point  RH - Relative Humidity
WIND - Wind Direction/Speed PRES - Barometric Pressure VSB - Visibility
WCI - Wind Chill Index E13G22 Wind - East Wind 13 mph/Gusts of 22 mph